Total_Precipitation_Accumulation
0.01 0.01 0.01 0.01 0.01 0.01 0.01 0.01 0.01 0.01 0.01 0.01 0.01 0.00 0.01 0.01 0.01 0.02 0.02 0.02 0.01 0.01 0.00 0.00 0.00 0.00 0.00 0.00 0.00 0.00 0.00 0.00 0.00 0.00 0.00 0.00 0.00 0.00 0.00 0.00 0.00 0.00 0.00 0.00 0.00 0.00 0.00
0.00 0.00 0.00 0.01 0.01 0.01 0.02 0.01 0.02 0.02 0.01 0.02 0.03 0.03 0.02 0.02 0.03 0.04 0.03 0.02 0.01 0.01 0.01 0.00 0.00 0.00 0.00 0.00 0.00 0.00 0.00 0.00 0.00 0.00 0.00 0.00 0.00 0.00 0.00 0.00 0.00 0.00 0.00 0.00 0.00 0.00 0.00
0.01 0.01 0.01 0.01 0.01 0.01 0.01 0.02 0.03 0.04 0.05 0.07 0.07 0.07 0.07 0.07 0.06 0.07 0.05 0.03 0.02 0.03 0.02 0.00 0.00 0.00 0.00 0.00 0.00 0.00 0.00 0.00 0.00 0.00 0.00 0.00 0.00 0.00 0.00 0.00 0.00 0.00 0.00 0.00 0.00 0.00 0.00
0.01 0.01 0.01 0.01 0.01 0.01 0.01 0.02 0.04 0.07 0.08 0.08 0.10 0.11 0.11 0.11 0.11 0.10 0.10 0.06 0.05 0.05 0.03 0.01 0.00 0.01 0.00 0.00 0.00 0.00 0.00 0.00 0.00 0.00 0.00 0.00 0.00 0.00 0.00 0.00 0.00 0.00 0.00 0.00 0.00 0.00 0.00
0.01 0.01 0.00 0.00 0.01 0.01 0.02 0.04 0.07 0.10 0.11 0.12 0.14 0.14 0.13 0.11 0.11 0.13 0.12 0.11 0.11 0.09 0.04 0.01 0.01 0.01 0.00 0.00 0.00 0.00 0.00 0.00 0.00 0.00 0.00 0.00 0.00 0.00 0.00 0.00 0.00 0.00 0.00 0.00 0.00 0.00 0.00
0.01 0.01 0.01 0.01 0.01 0.02 0.03 0.05 0.08 0.10 0.12 0.12 0.14 0.14 0.12 0.12 0.14 0.16 0.16 0.15 0.14 0.07 0.03 0.01 0.03 0.01 0.00 0.00 0.00 0.00 0.00 0.00 0.00 0.00 0.00 0.00 0.00 0.00 0.00 0.00 0.00 0.00 0.00 0.00 0.00 0.00 0.00
0.01 0.01 0.01 0.01 0.02 0.02 0.04 0.07 0.08 0.08 0.10 0.10 0.11 0.10 0.10 0.12 0.15 0.20 0.18 0.15 0.11 0.08 0.04 0.01 0.01 0.00 0.00 0.00 0.00 0.00 0.00 0.00 0.00 0.00 0.00 0.00 0.00 0.00 0.00 0.00 0.00 0.00 0.00 0.00 0.00 0.00 0.00
0.01 0.01 0.01 0.01 0.02 0.03 0.05 0.07 0.06 0.08 0.12 0.12 0.11 0.09 0.08 0.10 0.13 0.10 0.05 0.06 0.04 0.08 0.07 0.02 0.02 0.02 0.00 0.00 0.01 0.00 0.00 0.00 0.00 0.00 0.00 0.01 0.01 0.00 0.00 0.00 0.00 0.00 0.00 0.00 0.00 0.00 0.00
0.04 0.03 0.01 0.02 0.03 0.06 0.08 0.11 0.14 0.17 0.14 0.11 0.11 0.12 0.15 0.21 0.24 0.15 0.03 0.03 0.01 0.01 0.04 0.00 0.00 0.00 0.00 0.02 0.04 0.00 0.00 0.00 0.01 0.03 0.02 0.02 0.01 0.00 0.01 0.03 0.02 0.01 0.00 0.00 0.00 0.00 0.00
0.02 0.03 0.04 0.04 0.06 0.10 0.18 0.23 0.23 0.25 0.28 0.28 0.29 0.27 0.24 0.25 0.29 0.07 0.12 0.06 0.03 0.02 0.19 0.03 0.00 0.00 0.00 0.00 0.01 0.00 0.00 0.00 0.01 0.02 0.02 0.06 0.02 0.02 0.02 0.02 0.01 0.04 0.00 0.01 0.01 0.02 0.04
0.03 0.04 0.12 0.21 0.30 0.41 0.35 0.33 0.40 0.42 0.39 0.40 0.40 0.37 0.35 0.22 0.09 0.09 0.07 0.02 0.01 0.05 0.28 0.01 0.00 0.00 0.00 0.00 0.00 0.00 0.00 0.00 0.02 0.01 0.06 0.04 0.01 0.03 0.05 0.02 0.02 0.03 0.01 0.02 0.02 0.02 0.04
0.04 0.03 0.05 0.21 0.24 0.33 0.50 0.58 0.52 0.51 0.54 0.48 0.44 0.36 0.25 0.20 0.12 0.15 0.15 0.17 0.25 0.50 0.37 0.01 0.00 0.00 0.00 0.00 0.00 0.00 0.00 0.00 0.01 0.17 0.13 0.03 0.05 0.03 0.02 0.01 0.03 0.04 0.04 0.01 0.01 0.06 0.18
0.05 0.04 0.04 0.15 0.23 0.22 0.27 0.39 0.50 0.61 0.63 0.64 0.58 0.50 0.40 0.27 0.23 0.16 0.13 0.26 0.70 0.52 0.06 0.01 0.00 0.00 0.00 0.00 0.00 0.00 0.00 0.00 0.01 0.08 0.06 0.04 0.07 0.02 0.00 0.01 0.01 0.06 0.14 0.18 0.15 0.13 0.08
0.14 0.12 0.08 0.09 0.12 0.12 0.09 0.07 0.08 0.13 0.22 0.36 0.47 0.46 0.37 0.29 0.31 0.26 0.35 0.61 0.59 0.08 0.01 0.00 0.00 0.00 0.00 0.00 0.00 0.00 0.00 0.01 0.00 0.00 0.04 0.07 0.04 0.00 0.00 0.00 0.02 0.02 0.05 0.09 0.12 0.09 0.05
0.15 0.13 0.15 0.12 0.13 0.13 0.11 0.06 0.02 0.01 0.02 0.04 0.08 0.06 0.09 0.14 0.19 0.27 0.53 0.79 0.26 0.04 0.01 0.01 0.04 0.03 0.00 0.00 0.00 0.00 0.00 0.01 0.00 0.00 0.02 0.03 0.02 0.00 0.00 0.00 0.02 0.09 0.07 0.01 0.10 0.11 0.13
0.13 0.14 0.15 0.11 0.12 0.12 0.11 0.10 0.06 0.02 0.01 0.01 0.01 0.06 0.10 0.11 0.24 0.53 0.74 0.36 0.03 0.01 0.00 0.03 0.13 0.20 0.01 0.01 0.02 0.01 0.01 0.01 0.01 0.01 0.00 0.02 0.04 0.01 0.00 0.00 0.00 0.01 0.02 0.13 0.18 0.11 0.07
0.15 0.14 0.16 0.13 0.14 0.16 0.15 0.14 0.13 0.06 0.05 0.06 0.05 0.08 0.06 0.17 0.47 0.81 0.67 0.18 0.02 0.01 0.01 0.04 0.05 0.10 0.03 0.02 0.03 0.05 0.06 0.03 0.03 0.03 0.02 0.02 0.03 0.02 0.01 0.01 0.01 0.00 0.04 0.11 0.23 0.14 0.13
0.23 0.27 0.24 0.23 0.23 0.21 0.20 0.15 0.14 0.12 0.16 0.15 0.20 0.31 0.04 0.18 0.70 0.70 0.21 0.04 0.02 0.03 0.03 0.04 0.04 0.05 0.04 0.02 0.02 0.03 0.03 0.06 0.02 0.03 0.05 0.04 0.05 0.02 0.00 0.00 0.00 0.00 0.01 0.09 0.28 0.34 0.37
0.18 0.34 0.40 0.41 0.40 0.33 0.25 0.28 0.24 0.22 0.21 0.14 0.33 0.29 0.20 0.32 0.46 0.21 0.06 0.02 0.04 0.03 0.04 0.06 0.05 0.02 0.01 0.02 0.01 0.03 0.03 0.03 0.00 0.02 0.07 0.11 0.19 0.12 0.06 0.02 0.00 0.00 0.00 0.02 0.06 0.08 0.07
0.28 0.26 0.42 0.45 0.44 0.45 0.33 0.28 0.27 0.30 0.36 0.36 0.51 0.40 0.47 0.61 0.21 0.07 0.03 0.04 0.09 0.03 0.02 0.04 0.04 0.03 0.02 0.01 0.01 0.02 0.02 0.00 0.00 0.00 0.02 0.04 0.09 0.07 0.06 0.02 0.00 0.00 0.00 0.00 0.01 0.03 0.02
0.35 0.39 0.42 0.43 0.39 0.36 0.34 0.30 0.26 0.31 0.36 0.56 0.64 0.40 0.09 0.15 0.08 0.03 0.06 0.04 0.02 0.04 0.05 0.04 0.07 0.03 0.04 0.02 0.01 0.01 0.03 0.00 0.00 0.00 0.00 0.01 0.01 0.01 0.01 0.00 0.00 0.00 0.00 0.00 0.00 0.00 0.02
0.36 0.47 0.36 0.38 0.33 0.37 0.25 0.24 0.32 0.32 0.51 0.56 0.44 0.31 0.17 0.01 0.00 0.02 0.09 0.15 0.04 0.02 0.05 0.04 0.11 0.06 0.03 0.05 0.01 0.01 0.03 0.01 0.00 0.00 0.00 0.00 0.03 0.02 0.01 0.00 0.00 0.00 0.00 0.00 0.00 0.00 0.00
0.23 0.24 0.30 0.27 0.24 0.31 0.36 0.18 0.20 0.37 0.60 0.55 0.19 0.11 0.31 0.36 0.11 0.06 0.04 0.03 0.07 0.13 0.07 0.02 0.03 0.04 0.05 0.04 0.01 0.00 0.00 0.00 0.00 0.00 0.00 0.00 0.02 0.03 0.03 0.01 0.02 0.01 0.03 0.04 0.02 0.01 0.02
0.22 0.17 0.18 0.20 0.23 0.18 0.31 0.23 0.17 0.26 0.36 0.16 0.16 0.17 0.19 0.21 0.37 0.18 0.02 0.01 0.03 0.10 0.12 0.08 0.06 0.03 0.02 0.02 0.01 0.00 0.00 0.00 0.00 0.00 0.00 0.00 0.00 0.01 0.01 0.01 0.06 0.03 0.10 0.20 0.14 0.09 0.11
0.34 0.19 0.21 0.19 0.22 0.19 0.19 0.23 0.14 0.17 0.19 0.19 0.22 0.20 0.23 0.18 0.06 0.19 0.17 0.06 0.06 0.11 0.13 0.12 0.08 0.03 0.01 0.01 0.02 0.04 0.02 0.01 0.00 0.00 0.00 0.00 0.00 0.02 0.01 0.00 0.01 0.03 0.13 0.25 0.30 0.26 0.24
0.32 0.26 0.19 0.17 0.14 0.17 0.15 0.16 0.15 0.11 0.19 0.24 0.23 0.16 0.18 0.22 0.05 0.03 0.08 0.13 0.13 0.13 0.17 0.15 0.10 0.04 0.01 0.01 0.01 0.02 0.01 0.00 0.00 0.00 0.00 0.00 0.00 0.04 0.06 0.03 0.03 0.04 0.01 0.05 0.24 0.31 0.19
0.42 0.37 0.21 0.16 0.10 0.12 0.11 0.11 0.15 0.10 0.16 0.32 0.21 0.10 0.16 0.30 0.18 0.06 0.08 0.13 0.09 0.09 0.16 0.08 0.11 0.12 0.00 0.01 0.02 0.01 0.01 0.00 0.01 0.03 0.07 0.02 0.03 0.04 0.02 0.05 0.05 0.04 0.04 0.16 0.40 0.31 0.21
0.46 0.46 0.18 0.14 0.09 0.08 0.09 0.09 0.13 0.13 0.13 0.25 0.17 0.05 0.12 0.44 0.33 0.27 0.07 0.13 0.11 0.08 0.08 0.04 0.06 0.02 0.00 0.00 0.01 0.02 0.04 0.01 0.02 0.10 0.15 0.15 0.09 0.11 0.11 0.15 0.12 0.04 0.08 0.26 0.40 0.31 0.27
0.46 0.38 0.13 0.08 0.06 0.05 0.07 0.10 0.16 0.20 0.13 0.13 0.19 0.08 0.11 0.32 0.21 0.26 0.16 0.08 0.06 0.06 0.01 0.00 0.01 0.00 0.00 0.00 0.00 0.01 0.03 0.02 0.03 0.08 0.08 0.17 0.19 0.21 0.17 0.17 0.17 0.13 0.21 0.27 0.30 0.28 0.32